This is the latest recevied weather packets stored in our database for station/object W0VI. If no packets are shown the sender has not sent any weather packets the latest 10 day(s).
| Time | Temp. | Humidity | Pressure | Rain* | Wind** | Luminosity | Snow |
|---|---|---|---|---|---|---|---|
| 1778163756 | 8.33° C | 46% | 1012.9 hPa | 0 mm | - | 453 W/m² | - |
| 1778163453 | 7.78° C | 49% | 1013 hPa | 0 mm | - | 408 W/m² | - |
| 1778163150 | 7.78° C | 46% | 1013 hPa | 0 mm | - | 392 W/m² | - |
| 1778162846 | 7.78° C | 49% | 1012.9 hPa | 0 mm | - | 356 W/m² | - |
| 1778162544 | 7.22° C | 49% | 1013.1 hPa | 0 mm | - | 362 W/m² | - |
| 1778162240 | 7.22° C | 49% | 1013.2 hPa | 0 mm | - | 348 W/m² | - |
| 1778161938 | 7.22° C | 52% | 1013.3 hPa | 0 mm | - | 340 W/m² | - |
| 1778161634 | 6.67° C | 52% | 1013.4 hPa | 0 mm | - | 323 W/m² | - |
| 1778161330 | 6.67° C | 53% | 1013.1 hPa | 0 mm | - | 308 W/m² | - |
| 1778161026 | 6.67° C | 54% | 1013.2 hPa | 0 mm | - | 303 W/m² | - |
| 1778160724 | 6.67° C | 55% | 1013.3 hPa | 0 mm | - | 275 W/m² | - |
| 1778160421 | 6.11° C | 55% | 1013.3 hPa | 0 mm | - | 260 W/m² | - |
| 1778160117 | 6.11° C | 57% | 1013.3 hPa | 0 mm | - | 253 W/m² | - |
| 1778159814 | 5.56° C | 58% | 1013.3 hPa | 0 mm | - | 235 W/m² | - |
| 1778159511 | 5.56° C | 58% | 1013.4 hPa | 0 mm | - | 216 W/m² | - |
| 1778159208 | 5° C | 60% | 1013.4 hPa | 0 mm | - | 214 W/m² | - |
| 1778158906 | 5° C | 60% | 1013.4 hPa | 0 mm | - | 198 W/m² | - |
| 1778158604 | 5° C | 62% | 1013.3 hPa | 0 mm | - | 177 W/m² | - |
| 1778158302 | 4.44° C | 63% | 1013.6 hPa | 0 mm | - | 165 W/m² | - |
| 1778157997 | 3.89° C | 64% | 1013.3 hPa | 0 mm | - | 144 W/m² | - |
| 1778157696 | 3.89° C | 65% | 1013.4 hPa | 0 mm | - | 76 W/m² | - |
| 1778157394 | 3.33° C | 67% | 1013.3 hPa | 0 mm | - | 115 W/m² | - |
| 1778157090 | 3.33° C | 68% | 1013.2 hPa | 0 mm | - | 98 W/m² | - |
| 1778156786 | 2.78° C | 70% | 1013.3 hPa | 0 mm | - | 95 W/m² | - |
| 1778156477 | 2.78° C | 71% | 1013.5 hPa | 0 mm | - | 78 W/m² | - |
* Rain latest hour (hover to see other rain measurements)
** Current wind speed in m/s (hover to see current wind gust speed)